Lake Charles Regional, LA

11:28 PM CST on December 17, 2017 (GMT -0600)
Lake Charles Regional

Weather History for KLCH - May, 2013

Change the Weather History Date:

Thursday, May 16, 2013

  Actual Average Record
Temperature  
Mean Temperature 76 °F 76 °F  
Max Temperature 82 °F 85 °F 92 °F (1933)
Min Temperature 69 °F 67 °F 49 °F (1926)
Degree Days  
Heating Degree Days 0 0  
Month to date heating degree days 24 0  
Since 1 July heating degree days 1267 1489  
Cooling Degree Days 11 11  
Month to date cooling degree days 60 143  
Year to date cooling degree days 238 351  
Growing Degree Days 26 (Base 50)    
Moisture  
Dew Point 67 °F    
Average Humidity 76    
Maximum Humidity 93    
Minimum Humidity 58    
Precipitation  
Precipitation 0.00 in 0.17 in 15.67 in (1980)
Month to date precipitation 5.70 2.44  
Year to date precipitation 29.36 18.12  
Snow  
Snow 0.00 in 0.00 in 0.00 in ()
Month to date snowfall 0.0 0.0  
Since 1 July snowfall 0.0 0.1  
Snow Depth 0.00 in    
Sea Level Pressure  
Sea Level Pressure 29.96 in    
Wind  
Wind Speed 7 mph (South)    
Max Wind Speed 16 mph    
Max Gust Speed 22 mph    
Visibility 10 miles    
Events      
T = Trace of Precipitation, MM = Missing Value Source: NWS Daily Summary

Daily Weather History Graph

Daily Weather History Graph

Search for Another Location

Airport or City:

Trip Planner

Search our weather history database for the weather conditions in past years. The results will help you decide how hot, cold, wet, or windy it might be!

Date:

Astronomy

May. 16, 2013 Rise Set
Actual Time 6:18 AM CDT 8:00 PM CDT
Civil Twilight 5:52 AM CDT 8:26 PM CDT
Nautical Twilight 5:20 AM CDT 8:58 PM CDT
Astronomical Twilight 4:47 AM CDT 9:31 PM CDT
Moon 11:44 AM CDT (5/16) 12:28 AM CDT (5/16)
Length of Visible Light 14h 34m
Length of Day
13h 41m
Waxing Crescent, 36% of the Moon is Illuminated
May 16
Waxing Crescent
May 17
First Quarter
May 24
Full
May 31
Last Quarter
Jun 8
New

Hourly Weather History & Observations

Time (CDT) Temp. Heat Index Dew Point Humidity Pressure Visibility Wind Dir Wind Speed Gust Speed Precip Events Conditions
12:53 AM 71.1 °F - 66.9 °F 87% 29.99 in 10.0 mi SSE 8.1 mph - N/A   Scattered Clouds
1:53 AM 71.1 °F - 66.9 °F 87% 30.00 in 10.0 mi South 4.6 mph - N/A   Scattered Clouds
2:53 AM 70.0 °F - 66.0 °F 87% 29.99 in 10.0 mi SSE 3.5 mph - N/A   Scattered Clouds
3:53 AM 70.0 °F - 66.0 °F 87% 29.97 in 10.0 mi SSE 5.8 mph - N/A   Clear
4:53 AM 69.1 °F - 66.0 °F 90% 29.96 in 10.0 mi SSE 5.8 mph - N/A   Clear
5:53 AM 70.0 °F - 66.9 °F 90% 30.00 in 10.0 mi Calm Calm - N/A   Mostly Cloudy
6:03 AM 69.8 °F - 66.2 °F 88% 29.99 in 10.0 mi Calm Calm - N/A   Mostly Cloudy
6:34 AM 71.6 °F - 66.2 °F 83% 29.99 in 10.0 mi SW 4.6 mph - N/A   Overcast
6:53 AM 71.1 °F - 66.9 °F 87% 30.01 in 10.0 mi Calm Calm - N/A   Mostly Cloudy
7:53 AM 73.0 °F - 68.0 °F 84% 30.01 in 10.0 mi Calm Calm - N/A   Clear
8:26 AM 75.2 °F - 68.0 °F 78% 29.99 in 10.0 mi SSW 4.6 mph - N/A   Mostly Cloudy
8:42 AM 75.2 °F - 68.0 °F 78% 29.99 in 10.0 mi SSW 5.8 mph - N/A   Mostly Cloudy
8:53 AM 75.0 °F - 66.9 °F 76% 30.00 in 10.0 mi SSW 5.8 mph - N/A   Scattered Clouds
9:53 AM 77.0 °F - 66.0 °F 69% 29.97 in 10.0 mi South 11.5 mph 18.4 mph N/A   Partly Cloudy
10:53 AM 77.0 °F - 66.0 °F 69% 29.97 in 10.0 mi South 9.2 mph 16.1 mph N/A   Mostly Cloudy
11:49 AM 78.8 °F - 66.2 °F 65% 29.94 in 10.0 mi South 11.5 mph 18.4 mph N/A   Mostly Cloudy
11:53 AM 79.0 °F - 66.0 °F 64% 29.96 in 10.0 mi South 10.4 mph 18.4 mph N/A   Mostly Cloudy
12:10 PM 78.8 °F - 66.2 °F 65% 29.94 in 10.0 mi South 11.5 mph - N/A   Mostly Cloudy
12:43 PM 80.6 °F 82.7 °F 66.2 °F 61% 29.93 in 10.0 mi South 12.7 mph 19.6 mph N/A   Scattered Clouds
12:53 PM 80.1 °F 81.9 °F 64.9 °F 60% 29.96 in 10.0 mi South 13.8 mph 19.6 mph N/A   Scattered Clouds
1:16 PM 80.6 °F 82.7 °F 66.2 °F 61% 29.93 in 10.0 mi South 10.4 mph 17.3 mph N/A   Mostly Cloudy
1:53 PM 81.0 °F 83.0 °F 66.0 °F 60% 29.96 in 10.0 mi South 13.8 mph 19.6 mph N/A   Mostly Cloudy
2:53 PM 80.1 °F 82.1 °F 66.0 °F 62% 29.95 in 10.0 mi South 12.7 mph 18.4 mph N/A   Scattered Clouds
3:34 PM 80.6 °F 82.7 °F 66.2 °F 61% 29.91 in 10.0 mi SSE 13.8 mph - N/A   Mostly Cloudy
3:53 PM 79.0 °F - 66.0 °F 64% 29.92 in 10.0 mi South 11.5 mph 18.4 mph N/A   Mostly Cloudy
4:53 PM 78.8 °F - 66.2 °F 65% 29.90 in 10.0 mi SSW 11.5 mph 18.4 mph N/A   Mostly Cloudy
5:53 PM 77.0 °F - 66.0 °F 69% 29.92 in 10.0 mi South 9.2 mph - N/A   Mostly Cloudy
6:53 PM 75.9 °F - 66.9 °F 74% 29.91 in 10.0 mi South 9.2 mph 16.1 mph N/A   Scattered Clouds
7:09 PM 75.2 °F - 66.2 °F 73% 29.89 in 10.0 mi South 8.1 mph - N/A   Mostly Cloudy
7:53 PM 73.9 °F - 66.9 °F 79% 29.92 in 10.0 mi South 5.8 mph - N/A   Mostly Cloudy
8:53 PM 73.0 °F - 66.9 °F 81% 29.93 in 10.0 mi South 6.9 mph - N/A   Mostly Cloudy
9:53 PM 73.0 °F - 69.1 °F 87% 29.93 in 10.0 mi South 6.9 mph - N/A   Scattered Clouds
10:53 PM 73.0 °F - 69.1 °F 87% 29.94 in 10.0 mi SSE 4.6 mph - N/A   Mostly Cloudy
11:53 PM 72.0 °F - 69.1 °F 91% 29.94 in 10.0 mi South 4.6 mph - N/A   Scattered Clouds